CAPE
1358 1130 1019 770 352 794 884 1074 1163 1931 1564 1420 1466 1592 1584 1083 959 1139 1088 1492 1559 819
1361 1281 703 475 867 798 708 954 1487 1746 1086 1266 1498 1672 1832 1172 1584 1608 1472 1301 1539 1320
1226 1325 1201 960 857 822 521 1037 1117 1826 1863 1332 1647 1663 1893 1397 1665 1505 1056 1058 1368 1686
966 1056 1194 1013 925 841 890 1070 1411 1770 1769 1424 1670 1894 1958 1491 1475 1336 1267 1430 1640 1849
1042 1042 908 993 790 771 950 936 1431 1608 1660 1587 1463 1817 2038 1609 1018 1567 1595 1424 1589 1711
983 1050 982 734 914 801 889 972 1008 1354 1697 1557 1245 1587 2144 1919 1780 1830 1655 1751 1735 1579
659 710 745 700 685 869 966 955 749 963 1231 1548 1550 1199 1606 1847 2094 1967 2089 2129 2028 1773
904 827 712 740 575 665 912 1035 1028 801 792 1025 1241 1440 1397 1497 2026 2063 2212 2186 2280 2029
880 909 1025 1071 981 795 830 1068 1135 1103 866 620 333 411 793 1399 1809 1646 2001 2035 2161 2171
842 843 961 1017 1109 1143 992 829 1116 1149 1071 1017 861 144 87 494 875 1106 1643 1860 1791 1761
110 625 956 985 1065 1045 1083 1050 1046 1086 1176 1138 1169 745 275 26 542 833 1172 1326 1560 1836
3 4 126 879 1112 1206 1078 1115 1075 1062 1132 1253 1248 874 496 230 413 230 609 1082 1437 1659
0 4 3 67 623 917 1220 1107 1108 1036 1129 1160 1241 1192 689 247 514 444 353 293 993 1188
0 0 2 1 4 469 953 1160 1194 1401 1300 1262 1249 1222 729 375 573 560 533 468 287 264
CIN
-10 -2 -1 -1 -3 -4 -3 -1 -1 0 0 -3 -2 0 -1 -9 -2 -1 -4 -1 -2 -2
-32 -22 -1 -1 -1 -2 -1 -1 0 0 -10 -1 0 -1 -1 -3 -1 -1 -1 -1 -3 -3
-51 -39 -33 -8 -2 -2 -2 -3 -1 -4 -1 -5 0 -1 -6 -1 -2 -6 -4 -2 -1 -4
-51 -54 -54 -48 -28 -16 -4 -1 -1 -5 -4 -5 0 0 -1 -1 -1 -10 -3 -3 -1 -1
-57 -45 -45 -65 -53 -45 -20 -11 0 -1 -4 0 -1 -1 -3 -6 -1 -2 -1 -1 0 -1
-56 -52 -90 -65 -66 -51 -41 -31 -11 -1 -1 -3 0 -1 -2 -8 -2 -1 -1 -1 0 -2
-117 -116 -120 -123 -64 -50 -51 -47 -37 -23 -9 -1 -1 -2 -1 -1 -7 -3 -1 -1 -1 -1
-49 -74 -104 -123 -135 -78 -49 -48 -53 -38 -36 -23 -3 -2 -4 -1 -1 -4 -1 -1 0 -1
-20 -29 -42 -59 -80 -113 -76 -51 -41 -47 -49 -50 -41 -18 -11 -4 -2 -1 -2 -1 -2 -7
-15 -30 -33 -48 -43 -52 -85 -82 -50 -53 -46 -52 -53 -115 -138 -70 -24 -3 -2 0 -2 -4
-158 -26 -6 -14 -24 -35 -39 -40 -48 -52 -56 -60 -56 -96 -142 -202 -73 -31 -9 -1 0 -1
0 0 -145 -1 -1 -1 -8 -12 -30 -41 -41 -42 -77 -122 -171 -191 -101 -108 -80 -28 -7 -1
0 0 0 -170 -19 -5 0 -1 -3 -21 -23 -36 -50 -82 -184 -239 -107 -81 -130 -146 -67 -50
0 0 0 0 -163 -41 0 0 -1 -1 -7 -20 -35 -58 -144 -231 -139 -92 -79 -87 -123 -149
Wind_Speed
30 28 29 27 25 21 23 23 20 23 23 22 22 21 21 22 22 22 23 22 23 21
29 30 29 29 27 27 25 24 22 24 24 23 23 23 11 22 21 21 24 23 25 25
29 27 31 30 31 30 28 28 23 27 25 24 23 24 22 16 14 18 22 25 24 26
30 29 25 26 31 33 31 29 28 27 27 25 23 23 25 25 21 22 24 24 25 27
30 30 29 26 24 28 31 31 30 29 28 19 27 25 22 24 23 21 24 24 25 26
28 29 31 32 28 26 27 29 30 30 31 27 19 24 27 25 25 23 23 24 26 26
30 30 30 31 32 30 27 27 28 29 32 32 25 26 27 26 25 27 24 22 24 25
25 27 31 30 29 30 30 28 26 27 27 34 34 29 8 9 16 16 24 16 13 14
31 29 27 28 30 31 33 31 29 25 25 25 35 37 26 21 13 6 13 9 5 8
33 34 33 32 31 30 31 32 33 34 29 27 23 28 29 18 15 23 10 8 7 7
29 30 33 33 33 33 32 33 32 33 33 32 32 28 21 20 23 27 29 17 13 11
30 31 32 31 32 33 32 33 33 32 34 34 34 31 25 25 28 33 32 27 19 16
30 32 33 32 34 34 33 32 32 35 35 36 39 34 30 27 30 32 29 27 22 21
30 31 33 33 36 35 35 36 36 35 35 37 38 38 34 28 29 31 32 32 31 21
Wind_Direction
232 232 224 232 238 254 241 228 240 205 201 203 199 177 181 214 220 238 227 236 229 233
244 236 235 236 244 241 246 248 252 215 200 201 215 220 289 210 238 245 227 235 226 221
249 253 240 242 242 239 246 242 256 229 204 197 195 211 224 273 290 265 244 234 244 230
251 254 262 260 248 243 242 246 248 248 222 197 188 191 201 216 244 244 243 249 249 237
254 256 256 263 267 260 253 249 251 252 252 275 206 198 185 191 192 184 206 257 257 253
260 260 259 257 264 267 265 261 256 256 251 262 284 197 203 194 199 194 197 205 241 258
262 262 263 263 261 264 267 267 266 264 258 257 272 250 204 201 198 209 202 197 202 210
269 268 264 265 268 265 265 269 270 270 269 261 260 267 268 191 186 187 204 188 180 181
267 269 271 270 269 268 265 266 268 271 272 272 262 258 271 277 284 247 195 193 199 190
271 268 269 269 270 270 269 267 266 266 270 271 271 270 269 267 266 279 270 251 239 233
282 278 271 269 269 270 270 269 268 268 268 269 270 270 264 262 269 274 276 277 269 262
284 283 279 277 273 272 270 270 270 271 269 269 269 269 267 268 271 272 273 275 265 258
292 289 279 281 275 276 274 272 272 271 270 269 268 270 269 266 270 272 274 273 265 239
295 291 282 281 279 279 277 274 270 271 272 271 270 270 270 266 267 270 273 274 275 263